UTAA

Ashgabat

Airport
ICAO code
UTAA
IATA Code
ASB
Summary
ICAO Region
EUR
ICAO Territory
Location

Ashgabat, Turkmenistan,

Serving
Ashgabat
Elevation
692 ft
Coordinates
37° 59' 13" N , 58° 21' 39" E
KCC
Airport LOS
Parallel Runway Operation
Metar
Observation
UTAA 302100Z VRB02KT 8000 FEW100 02/M02 Q1014 R88/CLRD70 NOSIG
Station
Ashgabat
Date/Time
2023-01-30 21:00:00
Wind speed
02 kts
Lowest cloud amount
few clouds
Temperature
2°C
Dew point
-2°C
Humidity
74%
QNH
1014 hPa
Weather condition
n/a

Description

International airport serving the city of Ashgabat.

Climatology

Hot Desert Climate (Köppen climate classification BWh) - Hot desert climates are typically found in the subtropics where there is unbroken sunshine for the whole year due to the stable descending air and high pressure, little or no precipitation. Maximum temperatures of 40°C to 45°C are not uncommon, particularly during the warmer months of the year. During colder periods of the year, night-time temperatures can drop to freezing or below due to the exceptional radiation loss under the clear skies. However, very rarely do temperatures drop far below freezing.

Runways

Designator Length Width Surface Rops
11/29 1800 35 ASP Yes/Yes
12R/30L 2989 60 CON Yes/Yes
12L/30R 3800 46 CON Yes/Yes

Airport map

Aerial View

SKYbrary Partners:

Safety knowledge contributed by: